Tracking 28790 objects as of 19-Apr-2024
HD Live streaming from Space Station
objects crossing your sky now

DELTA 1 DEB

Track DELTA 1 DEB now!
10-day predictions


NORAD ID: 25997
Int'l Code: 1975-052BA
Perigee: 701.2 km
Apogee: 908.8 km
Inclination: 100.0 °
Period: 100.8 minutes
Semi major axis: 7176 km
RCS: 0.0179 m2 (small)
Launch date: June 12, 1975
Source: United States (US)
Launch site: AIR FORCE WESTERN TEST RANGE (AFWTR)

Note: This is SATELLITE DEBRIS
Your satellite tracking list
Your tracking list is empty




NASA's NSSDC Master Catalog

Two Line Element Set (TLE):
1 25997U 75052BA  24109.51117085  .00010439  00000-0  37649-2 0  9993
2 25997 100.0076 320.0576 0144668  93.8542 267.9188 14.28159628558129
Source of the keplerian elements: AFSPC